Weather in Neya

Russia / Kostroma Oblast     58°17′39″N   43°52′41″E
temp.,
°C
wind,
m/s
gust,
m/s
humid.,
%
clouds,
%
prec.,
mm/h
press.,
hPa
HPBL,
m
13 may, thu
thu1300:00+15ese38858 0.0 1023134
03:00+13se239159 0.0 102445
06:00+16ese247743 0.0 1023114
09:00+21se465250 0.0 1023735
12:00+24se584115 0.0 10222036
15:00+25se583728 0.0 10202585
18:00+21se51058100 0.1 1018804
21:00+16se2108452 0.7 1018380
14 may, fri
fri1400:00+14sse2597100 3.5 1017170
03:00+13sw269933 3.6 1018159
06:00+13w23910 0.0 1019157
09:00+18sw226267 0.0 1019588
12:00+22ssw2444100 0.0 10191382
15:00+22ssw344387 0.0 10191620
18:00+21ssw245810 0.0 1017170
21:00+16sse117627 0.0 101711
15 may, sat
sat1500:00+14se22835 0.0 101727
03:00+14se2592100 0.6 1016107
06:00+16se31091100 0.1 1015286
09:00+21sse4773100 0.1 1014501
12:00+26sse475267 0.0 10121400
15:00+27s6104313 0.0 10111908
18:00+21sw71270100 1.1 10111168
21:00+17s4138916 2.9 1011624
16 may, sun
sun1600:00+15s3119389 0.0 1012333
03:00+14ssw39979 0.0 1012237
06:00+15ssw37900 0.0 1013274
09:00+20sw4763100 0.0 1013983
12:00+22sw4750100 0.0 10141719
15:00+24sw474327 0.0 10132439
18:00+21sw3757100 0.0 1012447
21:00+15w269020 2.9 1013131
17 may, mon
mon1700:00+13sw279422 0.1 1014157
03:00+12wsw26975 0.1 1016142
06:00+14wnw24911 0.0 1017194
09:00+19nw227098 0.0 1018702
12:00+22nw2251100 0.0 10181385
15:00+24nnw1144100 0.0 10181613
18:00+22nne1155100 0.0 101874
21:00+16ene2274100 0.0 101831